CAPE
12 4 5 8 7 4 6 7 4 6 4 3 2 3 2 3 3 2 1 3 3 2 2 2 2 1 0 0 0 0 0 0 0 0 0 0 0 0 0 0 0 0 0 0 0 1 22
12 12 9 12 12 6 12 9 10 9 7 8 6 7 6 4 3 1 2 5 5 3 1 2 3 1 0 0 0 0 0 0 0 0 0 0 0 0 0 0 0 0 0 0 0 0 69
15 16 12 12 14 13 12 9 9 8 7 8 11 9 7 6 2 0 1 2 4 2 3 2 0 0 0 0 0 0 0 0 0 0 0 0 0 0 0 0 0 0 0 0 1 49 289
13 12 7 12 13 13 12 14 7 9 7 11 7 4 2 2 2 4 4 6 2 2 0 1 1 0 0 0 0 0 0 0 0 0 0 0 0 0 0 0 0 0 0 19 72 202 399
17 17 12 17 16 22 13 9 9 8 10 14 7 4 4 6 7 6 3 3 1 0 1 1 0 0 0 0 0 0 0 0 0 0 0 0 0 0 0 0 0 0 1 9 220 264 515
6 12 13 18 11 19 17 14 11 12 12 13 14 9 5 4 5 2 1 0 0 0 0 0 0 0 0 0 0 0 0 0 0 0 0 0 0 0 0 0 0 1 0 29 39 287 433
8 11 15 14 15 14 17 8 5 3 6 10 8 5 5 3 3 0 0 0 0 0 0 0 0 0 0 0 0 0 0 0 0 0 0 0 0 0 0 0 0 3 25 43 46 238 354
11 11 11 7 7 10 12 1 4 3 3 4 6 7 4 1 0 0 0 0 0 0 0 0 0 0 0 0 0 0 0 0 0 0 0 0 0 0 0 0 0 0 3 36 85 145 204
13 15 11 12 13 15 24 23 15 3 5 5 3 5 3 2 0 0 0 0 0 0 0 0 0 0 0 0 0 0 0 0 0 0 0 0 0 0 0 0 0 0 0 17 88 133 170
17 25 27 21 21 21 29 27 18 1 5 6 4 2 2 0 0 0 0 0 0 0 0 0 0 0 0 0 0 0 0 0 0 0 0 0 0 0 0 0 0 0 0 3 41 91 111
28 31 43 38 29 30 25 17 14 1 8 5 2 0 0 0 0 0 0 0 0 0 0 0 0 0 0 0 0 0 0 0 0 0 0 0 0 0 0 0 0 0 0 0 3 68 100
26 36 31 32 30 32 31 21 12 4 7 11 3 0 1 0 0 0 0 0 0 0 0 0 0 0 0 0 0 0 0 0 0 0 0 0 0 0 0 0 0 0 0 4 16 31 80
36 36 29 31 31 33 33 29 17 9 2 0 0 0 0 0 0 0 0 0 0 0 0 0 0 0 0 0 0 0 0 0 0 0 0 0 0 0 0 0 0 0 0 14 35 40 41
44 52 48 38 43 44 49 44 29 19 15 0 0 0 0 0 0 0 0 0 0 0 0 0 0 0 0 0 0 0 0 0 0 0 0 0 0 0 0 0 0 0 0 8 40 26 29
74 60 61 54 44 50 56 48 32 27 16 0 0 0 0 0 0 0 0 0 0 0 0 0 0 0 0 0 0 0 0 0 0 0 0 0 0 0 0 0 0 0 0 0 27 48 28
87 65 78 73 70 61 57 33 33 33 10 0 0 0 0 0 0 0 0 0 0 0 0 0 0 0 0 0 0 0 0 0 0 0 0 0 0 0 0 0 0 0 0 0 7 77 47
32 34 27 28 36 38 16 10 15 21 1 0 0 0 0 0 0 0 0 0 0 0 0 0 0 0 0 0 0 0 0 0 0 0 0 0 0 0 0 0 0 0 0 0 1 10 17
39 57 58 53 43 47 32 37 32 22 0 0 0 0 0 0 0 0 0 0 0 0 0 0 0 0 0 0 0 0 0 0 0 0 0 0 0 0 0 0 0 0 0 0 6 4 12
50 55 51 48 54 43 36 40 41 32 20 10 0 0 0 0 0 0 0 0 0 0 0 0 0 0 0 0 0 0 0 0 0 0 0 1 0 9 0 0 0 0 0 0 0 1 110
54 58 67 67 61 57 58 52 50 38 23 26 1 0 0 1 0 0 0 0 0 0 0 0 0 0 0 0 0 0 0 0 0 0 17 0 0 0 0 0 0 0 0 0 0 3 3
34 41 56 64 70 67 68 87 73 61 27 34 14 0 1 0 72 72 55 42 2 0 0 0 0 0 0 0 0 0 0 0 0 0 0 21 23 28 0 0 0 0 0 0 0 0 4
48 58 60 62 73 77 78 103 96 46 13 28 36 51 37 0 0 0 0 0 36 2 5 0 0 0 0 0 0 0 0 0 0 0 0 7 102 47 43 8 7 3 0 0 0 0 0
55 54 53 63 68 66 71 84 136 78 19 47 28 24 28 1 0 0 0 3 11 41 4 0 0 0 0 0 0 0 0 0 0 0 0 33 188 326 158 91 65 57 11 8 0 0 0
74 74 71 70 76 88 81 73 98 128 55 86 59 25 15 7 1 0 1 0 0 3 7 0 0 0 0 0 0 0 0 0 0 0 0 159 521 467 359 252 191 2 2 1 0 0 0
54 65 84 101 99 106 89 77 110 158 60 56 71 21 35 24 8 0 0 0 7 2 2 0 0 0 0 0 0 0 0 0 0 0 0 24 216 427 274 342 185 64 123 21 4 0 0
86 83 62 73 106 124 117 119 123 145 134 75 74 51 31 28 0 4 3 10 15 10 0 0 0 0 0 0 1 34 11 0 0 1 43 87 160 330 333 234 182 494 385 275 318 62 0
64 90 90 78 99 125 118 125 120 104 132 61 123 153 67 69 13 6 7 9 9 5 14 1 0 0 5 113 63 90 58 29 32 108 195 390 490 166 331 365 295 526 276 459 395 44 11
65 84 103 106 118 117 128 127 116 81 53 71 57 62 37 30 6 11 20 15 8 26 29 1 0 6 36 256 199 120 130 115 98 266 638 539 484 251 450 507 424 217 491 617 688 542 486
70 37 92 117 111 113 103 113 72 40 20 42 32 200 263 59 5 1 2 2 1 1 6 5 0 0 0 54 219 225 444 271 149 190 526 479 319 353 431 348 376 216 265 443 624 686 630
CIN
0 0 0 0 0 0 0 0 0 0 0 0 0 0 0 0 0 0 0 0 0 0 0 0 0 0 0 0 0 0 0 0 0 0 0 0 0 0 0 0 0 0 0 0 0 -7 -3
0 0 0 0 0 0 0 0 0 0 0 0 0 0 0 0 0 0 0 0 0 0 0 0 0 0 0 0 0 0 0 0 0 0 0 0 0 0 0 0 0 0 0 0 0 0 -4
0 0 0 0 0 0 0 0 0 0 0 0 0 0 0 0 0 0 0 0 0 0 0 0 0 0 0 0 0 0 0 0 0 0 0 0 0 0 0 0 0 0 0 0 -6 -8 -11
0 0 0 0 0 0 0 0 0 0 0 0 0 0 0 0 0 0 0 0 0 0 0 0 0 0 0 0 0 0 0 0 0 0 0 0 0 0 0 0 0 0 0 0 -5 -16 -24
0 0 0 0 0 0 0 0 0 0 0 0 0 0 0 0 0 0 0 0 0 -1 0 0 0 0 0 0 0 0 0 0 0 0 0 0 0 0 0 0 0 0 0 0 -4 -18 -35
0 0 0 0 0 0 0 0 0 0 0 0 0 0 0 0 0 0 0 0 0 0 0 0 0 0 0 0 0 0 0 0 0 0 0 0 0 0 0 0 0 0 0 0 0 -19 -16
0 0 0 0 0 0 0 0 0 0 0 0 0 0 0 0 0 0 0 0 0 0 0 0 0 0 0 0 0 0 0 0 0 0 0 0 0 0 0 0 0 0 0 0 0 -6 -7
0 0 0 0 0 0 0 0 0 0 0 0 0 0 0 0 0 0 0 0 0 0 0 0 0 0 0 0 0 0 0 0 0 0 0 0 0 0 0 0 0 0 0 0 0 -10 -6
-1 0 0 0 0 0 0 0 0 0 0 0 0 0 0 0 0 0 0 0 0 0 0 0 0 0 0 0 0 0 0 0 0 0 0 0 0 0 0 0 0 0 0 0 -1 -12 -10
0 0 0 0 0 0 0 0 0 0 0 0 0 0 0 0 0 0 0 0 0 0 0 0 0 0 0 0 0 0 0 0 0 0 0 0 0 0 0 0 0 0 0 0 0 0 0
-1 -1 0 0 0 0 0 0 0 0 0 0 0 0 0 0 0 0 0 0 0 0 0 0 0 0 0 0 0 0 0 0 0 0 0 0 0 0 0 0 0 0 0 0 0 0 0
-4 -1 -2 0 0 0 0 0 0 0 0 0 0 0 0 0 0 0 0 0 0 0 0 0 0 0 0 0 0 0 0 0 0 0 0 0 0 0 0 0 0 0 0 0 -1 0 0
0 0 -4 -1 0 0 0 0 0 0 0 0 0 0 0 0 0 0 0 0 0 0 0 0 0 0 0 0 0 0 0 0 0 0 0 0 0 0 0 0 0 0 0 0 0 0 0
0 0 0 -3 -1 0 0 0 0 0 0 0 0 0 0 0 0 0 0 0 0 0 0 0 0 0 0 0 0 0 0 0 0 0 0 0 0 0 0 0 0 0 0 0 0 0 0
0 0 0 0 0 0 0 0 0 0 -2 -1 0 0 0 0 0 0 0 0 0 0 0 0 0 0 0 0 0 0 0 0 0 0 0 0 0 0 0 0 0 0 0 0 0 0 0
0 0 0 0 0 0 0 0 0 0 -3 0 0 0 0 0 0 0 0 0 0 0 0 0 0 0 0 0 0 0 0 0 0 0 0 0 0 0 0 0 0 0 0 0 0 0 0
0 0 -1 -2 0 0 -3 -1 0 -1 -1 0 0 0 0 0 0 0 0 0 0 0 0 0 0 0 0 0 0 0 0 0 0 0 0 0 0 0 0 0 0 0 0 0 0 0 0
0 0 0 0 0 0 0 0 0 -6 0 0 0 0 0 0 0 0 0 0 0 0 0 0 0 0 0 0 0 0 0 0 0 0 0 0 0 0 0 0 0 0 0 0 0 0 0
0 0 0 0 0 0 0 0 -2 -10 -12 0 0 0 0 0 0 0 0 0 0 0 0 0 0 0 0 0 0 0 0 0 0 0 0 0 0 0 0 0 0 0 0 0 0 0 0
0 0 0 0 0 0 0 0 -2 -10 -11 -4 0 0 0 0 0 0 0 0 0 0 0 0 0 0 0 0 0 0 0 0 0 0 -156 0 0 0 0 0 0 0 0 0 0 0 0
0 0 0 0 0 0 0 0 -4 -7 -9 -3 0 0 0 0 0 0 0 0 0 0 0 0 0 0 0 0 0 0 0 0 0 0 0 -10 -2 0 0 0 0 0 0 0 0 0 0
0 0 0 0 0 0 0 0 -3 -7 -12 0 0 0 0 0 0 0 0 0 0 0 0 0 0 0 0 0 0 0 0 0 0 0 0 -2 -6 0 0 0 0 0 0 0 0 0 0
0 0 0 0 0 0 0 -1 -4 -4 -9 -1 0 0 0 0 0 0 0 -14 -6 0 -16 0 0 0 0 0 0 0 0 0 0 0 0 -5 -1 0 -4 0 0 0 0 0 0 0 0
0 0 0 0 0 0 0 0 -2 -4 -5 -2 0 0 0 0 0 0 -8 0 0 -57 -64 0 0 0 0 0 0 0 0 0 0 0 0 -11 -1 0 0 0 -2 0 0 0 0 0 0
0 0 0 0 0 0 0 0 0 -2 -5 -23 -1 -1 0 0 0 0 0 0 -17 -79 -73 0 0 0 0 0 0 0 0 0 0 0 0 -35 -12 0 0 0 -1 -2 -1 0 0 0 0
0 0 0 0 0 0 0 0 0 0 -4 -1 -1 -3 0 0 0 0 0 0 -42 -61 -7 0 0 0 0 0 -13 0 0 0 0 -2 -40 -6 -8 0 0 0 -2 -13 -102 -136 -106 -2 0
0 0 0 0 0 0 0 0 0 -1 -4 -2 0 -2 0 0 0 0 0 0 0 -24 -31 -31 0 0 -103 -2 0 0 0 0 0 0 0 0 0 0 -1 0 0 -88 -187 -138 -18 -5 0
0 0 0 0 0 -1 0 0 0 -1 -1 -4 -12 -2 -1 0 0 0 0 0 -1 0 -9 -35 0 -44 -84 0 -1 0 0 0 0 0 0 0 0 0 -1 0 0 -184 -101 -77 -87 -132 -137
-29 0 0 0 0 -1 0 0 0 -3 -12 -4 0 0 0 0 0 0 0 0 0 0 0 0 0 0 0 -30 -1 -6 -8 -1 -1 0 -3 0 0 0 0 -1 -158 -240 -299 -274 -109 -121 -144
Wind_Speed
18 20 19 19 19 20 21 21 20 21 21 21 22 22 23 23 22 22 22 21 21 22 21 18 16 11 8 9 15 6 7 9 13 18 17 19 19 18 16 11 10 12 12 9 10 8 11
19 19 20 20 20 20 20 21 21 22 21 22 22 22 22 22 23 24 22 21 22 22 22 19 13 7 7 16 3 7 7 10 9 19 19 20 15 19 10 12 11 4 7 9 10 9 11
17 18 18 18 18 19 20 21 21 22 22 23 22 22 22 23 24 26 25 23 23 24 21 17 7 7 8 19 2 8 9 8 9 18 17 22 19 17 14 11 12 8 12 5 9 12 10
17 18 19 19 18 18 20 20 21 22 22 22 24 24 24 25 25 26 26 24 25 21 11 8 8 8 10 2 3 11 13 12 9 14 16 13 21 16 19 6 7 14 14 13 11 15 9
18 18 18 18 19 18 19 21 22 22 21 21 22 24 26 26 26 25 26 28 19 4 3 9 8 7 8 7 9 6 10 10 11 12 10 11 16 17 17 15 16 15 14 13 12 14 8
18 18 19 19 19 18 19 20 21 21 22 22 22 22 24 26 27 27 28 23 1 7 7 7 6 7 7 6 10 2 6 8 12 15 11 16 12 15 15 18 17 18 18 11 13 15 12
18 18 18 19 18 19 19 20 21 22 22 23 23 23 25 25 26 25 18 4 7 9 10 11 7 15 7 5 7 5 8 13 11 18 15 19 20 21 23 22 20 17 15 13 15 15 17
17 17 18 19 19 19 19 20 21 22 23 23 23 24 25 27 26 26 9 8 4 6 14 17 24 24 21 12 10 17 14 16 15 18 18 16 23 22 23 22 24 21 18 17 14 9 15
17 16 16 17 18 18 18 19 19 20 20 22 24 23 24 28 29 10 9 2 4 9 10 10 10 10 9 18 15 16 24 20 20 21 21 19 18 21 20 22 24 23 21 18 15 11 15
15 15 14 15 16 17 17 18 17 19 21 21 24 23 23 28 12 10 3 5 7 6 8 6 8 8 9 6 10 14 25 22 18 23 21 20 19 23 17 24 22 24 22 18 14 13 13
16 16 16 15 17 17 18 18 17 19 20 22 22 23 20 12 13 7 5 5 9 5 8 9 9 9 9 10 5 8 17 26 22 19 21 19 23 21 23 23 24 23 21 19 18 15 18
16 16 16 17 17 17 17 19 20 21 21 22 23 25 19 7 8 13 12 9 5 9 10 7 9 13 12 13 5 6 14 20 16 20 17 23 16 21 20 21 22 20 18 13 17 15 19
17 17 16 17 17 17 18 18 20 22 23 24 24 26 21 9 6 1 6 7 8 12 5 10 10 14 11 7 10 11 18 23 19 21 21 20 21 16 19 22 23 22 18 12 16 16 15
17 15 16 16 15 17 17 18 20 21 23 24 28 31 6 9 8 11 7 9 16 5 18 4 5 11 13 9 9 15 17 20 25 22 15 18 22 26 16 28 25 27 25 16 24 15 14
18 17 17 16 16 17 18 18 19 21 21 22 31 8 8 5 11 7 10 17 11 16 10 14 14 15 16 14 8 10 19 21 24 25 23 20 25 24 25 18 28 28 28 25 25 20 18
17 17 17 17 17 17 17 18 19 20 19 21 11 12 8 6 10 9 11 25 21 16 10 13 17 12 14 17 14 13 16 16 20 24 22 14 14 23 22 21 26 30 20 25 21 26 23
17 16 15 15 15 16 16 16 16 17 17 22 9 7 7 5 10 9 16 22 23 25 17 19 18 20 14 15 14 11 7 11 15 20 21 21 13 14 23 28 27 21 25 22 23 22 20
17 17 16 16 15 16 17 16 16 14 14 11 6 7 6 6 10 11 17 20 15 19 24 25 17 21 19 16 16 14 12 9 9 16 25 22 15 16 17 26 28 26 26 26 19 26 20
19 18 17 17 16 17 16 16 14 13 9 8 6 8 3 7 10 14 15 17 18 23 22 23 28 22 18 18 20 17 17 13 11 11 15 20 19 14 19 19 17 27 31 28 27 21 25
19 19 19 18 17 16 16 15 12 11 6 7 7 6 7 8 12 13 17 14 20 17 21 24 21 21 24 23 18 10 12 14 11 17 7 9 19 23 17 20 19 25 25 29 29 24 22
20 19 19 19 18 17 17 16 12 11 5 6 6 5 4 6 6 7 13 16 15 16 14 16 21 22 20 20 21 20 17 10 10 8 6 9 16 17 21 22 20 24 28 28 31 30 30
19 19 18 18 19 18 18 17 14 9 3 7 6 6 5 10 14 15 12 13 14 15 9 16 17 21 21 20 19 17 21 18 17 14 15 13 12 13 20 23 25 23 26 27 27 28 30
20 19 19 18 18 17 16 15 14 9 7 5 3 6 5 8 8 8 11 11 8 10 11 16 15 12 8 8 8 10 10 13 14 11 13 15 13 11 17 18 22 25 27 27 29 27 25
22 20 20 18 18 18 16 15 15 11 13 3 5 3 3 11 10 7 10 12 14 13 16 19 16 14 3 10 15 15 17 18 18 20 17 11 13 13 13 2 14 14 18 23 25 28 24
21 20 19 19 18 18 17 16 16 11 10 5 2 3 4 7 11 13 15 16 13 14 16 18 17 17 14 12 8 11 13 18 23 22 21 19 15 11 12 14 8 14 7 16 22 24 27
21 20 19 18 17 18 17 16 16 13 11 6 5 4 3 4 8 9 11 11 11 9 12 11 9 13 10 8 11 15 16 15 18 19 21 19 17 14 9 14 17 3 10 13 13 15 23
21 19 18 18 17 16 15 15 13 11 6 5 4 10 4 4 14 15 13 12 9 10 7 5 6 8 7 10 13 13 16 18 16 20 18 16 17 20 11 11 9 11 13 4 10 6 21
20 19 17 18 16 15 15 14 13 9 5 5 3 7 5 4 12 22 22 17 10 11 7 7 7 6 5 6 10 10 11 11 16 18 24 18 16 11 6 11 16 8 2 2 15 15 9
19 17 16 15 14 14 15 10 8 6 4 3 4 8 8 6 9 20 21 19 19 21 15 7 7 7 3 5 4 6 5 2 11 13 5 15 14 8 10 5 5 5 2 3 8 3 4
Wind_Direction
7 7 6 6 3 360 357 355 353 351 348 346 343 341 338 335 332 327 324 322 319 318 315 313 311 315 279 245 259 138 169 191 187 193 215 207 206 212 232 230 232 242 266 269 263 206 193
3 4 3 0 358 356 355 353 351 349 348 345 341 338 334 332 330 325 322 321 317 314 309 305 298 283 253 267 50 150 155 158 198 202 208 216 219 218 259 244 233 293 260 274 259 191 178
2 2 1 357 356 354 353 351 352 349 346 344 341 338 334 331 328 324 321 319 315 309 300 290 258 229 249 255 282 182 195 229 212 206 212 216 224 206 222 233 228 231 243 225 231 166 168
360 359 357 355 356 353 352 348 349 346 344 342 339 337 333 330 326 322 318 316 314 306 290 253 192 226 261 126 237 236 232 226 213 215 228 229 219 253 244 235 202 221 231 222 156 172 159
356 355 353 352 353 350 348 348 347 345 342 337 337 335 329 328 324 321 317 313 310 304 132 156 201 243 266 121 223 195 194 202 188 184 209 192 201 229 208 219 216 209 230 216 151 192 157
354 351 351 349 350 347 349 348 347 344 340 337 335 334 329 328 324 324 322 303 165 168 179 221 266 241 241 228 153 240 187 183 170 175 169 191 201 206 222 211 214 208 224 191 193 187 191
350 348 348 347 344 343 344 345 344 342 338 334 333 333 329 327 323 322 322 230 215 188 203 261 297 265 265 197 177 211 177 185 180 181 190 192 203 208 207 216 229 225 208 215 213 155 203
342 342 343 342 342 338 337 338 338 339 337 332 331 332 329 326 322 318 282 304 38 356 292 260 252 261 261 266 264 237 189 196 195 199 203 181 215 211 225 216 230 238 225 218 188 168 219
338 336 334 335 336 335 332 329 331 333 332 330 329 331 331 326 319 287 326 313 6 318 264 279 235 247 237 201 226 239 193 211 201 207 198 209 203 219 214 223 223 224 230 216 215 180 227
330 323 322 327 330 330 328 326 325 328 329 328 326 331 334 330 286 343 294 159 309 317 269 209 197 184 169 186 225 221 207 203 214 214 201 220 213 207 205 226 219 225 223 234 220 202 223
326 325 327 326 327 326 326 328 322 323 324 324 323 323 330 327 306 283 20 319 308 233 278 118 147 131 156 215 10 159 199 203 208 214 205 204 209 193 216 215 217 232 226 218 245 217 239
321 321 321 327 328 327 324 324 322 321 322 322 321 318 328 292 240 261 301 296 237 230 238 179 166 182 186 203 204 122 188 213 224 216 218 231 199 216 221 215 224 226 250 233 233 234 229
316 317 319 317 317 322 322 321 320 320 318 318 317 312 305 272 253 357 289 239 226 239 103 185 194 193 202 189 190 180 185 196 202 202 204 214 203 215 214 211 209 217 212 205 216 224 240
301 306 309 312 319 317 316 315 317 318 317 318 317 310 266 244 226 251 252 223 233 237 217 118 209 189 227 196 208 195 190 205 213 211 209 208 209 208 194 214 202 213 216 225 219 220 217
296 297 302 308 313 314 313 316 319 319 323 324 313 303 266 240 208 221 222 217 222 229 235 238 216 231 222 203 256 208 215 212 211 218 226 207 227 199 218 216 222 201 220 228 243 226 245
307 300 302 310 308 310 314 318 320 324 325 326 312 302 259 167 171 198 225 235 227 257 248 237 228 212 228 213 207 209 210 218 221 212 224 223 235 222 200 215 221 230 209 220 229 237 227
311 303 304 305 304 306 301 310 315 322 326 316 282 291 72 184 189 208 228 225 231 246 252 251 236 246 232 239 227 215 238 205 213 200 216 230 215 211 211 207 212 208 224 219 236 228 243
313 308 301 299 299 302 304 311 316 318 328 307 297 277 81 186 235 228 238 239 259 249 227 247 252 251 241 237 231 221 227 233 196 222 203 213 218 230 218 224 215 226 213 217 222 224 237
305 300 300 294 293 301 302 309 311 311 328 324 282 280 273 235 253 245 246 251 255 253 238 234 233 240 238 237 235 247 235 240 255 230 220 206 224 213 230 221 205 228 225 221 229 238 226
310 308 305 303 299 297 296 296 300 307 313 294 279 286 207 204 253 284 289 286 265 243 254 252 247 231 224 227 230 245 217 222 231 232 10 276 218 221 225 225 220 213 227 236 232 231 230
308 308 307 302 298 293 291 293 298 302 285 284 250 249 29 292 254 322 299 289 289 271 248 245 242 244 220 218 219 216 237 234 222 188 209 228 239 233 230 254 240 234 219 222 233 239 241
304 300 299 302 302 294 293 294 289 291 239 261 288 315 344 290 281 277 271 261 270 271 265 259 238 226 234 231 232 229 227 235 243 225 231 219 250 256 242 242 239 238 232 239 228 235 242
296 296 298 300 299 299 299 302 292 257 179 263 256 262 262 278 258 279 269 259 285 349 280 262 301 312 278 273 307 296 297 290 284 251 235 232 236 212 241 230 232 241 242 227 228 236 232
300 295 295 294 294 294 299 299 294 261 193 229 269 253 269 267 255 237 277 303 291 279 274 290 303 294 296 334 299 254 247 249 244 242 243 239 230 256 258 165 235 251 234 240 239 226 233
298 296 295 290 290 289 291 290 291 273 206 216 205 211 221 269 276 283 278 266 272 284 255 267 282 285 309 292 263 233 231 227 227 230 226 224 237 234 240 237 290 290 319 233 239 237 224
299 295 298 295 291 293 290 286 289 273 225 203 225 197 226 273 254 265 289 304 289 281 276 251 289 308 283 259 234 233 216 207 210 204 213 219 213 241 200 240 230 113 19 344 317 247 241
306 295 291 293 294 293 291 284 288 291 241 195 238 206 230 250 262 265 255 285 325 286 278 317 344 295 239 240 240 216 226 211 204 185 186 186 200 211 199 225 235 32 340 47 234 271 231
309 303 292 292 291 287 286 283 286 287 259 181 239 202 207 253 276 280 274 265 263 276 276 4 303 209 259 249 245 228 232 198 219 183 177 194 203 210 204 232 229 15 248 244 337 303 281
305 309 301 297 294 292 296 280 281 265 196 239 240 212 208 237 283 296 281 271 261 262 271 265 284 316 302 290 298 299 288 242 206 205 165 198 207 198 224 234 66 27 305 279 324 9 113